Location: Ab? ar R?sh Ba?r?
(24.1861°N, 32.8847°E)
Time: 12:39:05
(UTC+00:00)

H-2A R/B - Pass Details

Date: 29 May 2022
Orbit: 576 x 653 km, 98.5° (Epoch: 28 June)

Event Time Altitude Azimuth Distance (km) Brightness Sun altitude
Rises 18:19:46 0° 357° (N) 2,792 6.0 -22.1°
Reaches altitude 10° 18:22:07 10° 346° (NNW) 1,897 5.3 -22.5°
Maximum altitude 18:25:38 28° 286° (WNW) 1,102 3.9 -23.1°
Drops below altitude 10° 18:29:13 10° 227° (SW) 1,919 4.6 -23.7°
Sets 18:31:36 0° 215° (SW) 2,831 5.4 -24.2°
Enters shadow 18:31:38 - 215° (SW) 2,843 5.4 -24.2°
